#timestamp,LO_Frequency,Hit,StdDev 
1649041215.9,286047002.9,P
1649041235.7,286047004.2,N
1649041255.5,286047002.8,N
1649041275.4,286047002.4,N
1649041295.2,286047004.1,N
1649041315.1,286047006.7,N
1649041316.0,286047006.4,N
1649041335.8,286047008.8,Y
1649041355.6,286047006.3,P
1649041375.5,286047008.9,P
1649041395.3,286047009.1,P
1649041415.1,286047006.3,N
1649041435.9,286047008.4,Y
1649041455.7,286047000.7,P
1649041475.6,286047001.0,N
1649041495.4,286047001.2,N
1649041515.2,286046999.4,N
1649041535.1,286046996.9,N
1649041536.0,286046998.4,N
1649041555.8,286046999.4,N
1649041575.7,286046997.8,N
1649041595.5,286046997.3,N
1649041615.3,286046997.0,N
1649041635.2,286046995.4,N
1649041655.9,286046992.8,N
1649041675.7,286046988.6,Y
1649041695.6,286046990.3,P
1649041715.4,286046990.8,N
1649041735.3,286046988.8,N
1649041755.1,286046991.2,N
1649041756.0,286046993.2,N
1649041775.8,286046990.8,N
1649041795.7,286046990.8,Y
1649041815.5,286046998.1,P
1649041835.3,286047011.9,P
1649041855.2,286047002.6,N
1649041875.0,286047001.5,N
1649041875.9,286047002.0,N
1649041895.8,286047001.7,N
1649041915.6,286046998.1,N
1649041935.4,286046999.0,N
1649041955.3,286047000.4,N
1649041975.1,286047000.1,N
1649041995.9,286046999.6,N
1649042015.7,286047000.5,N
1649042035.5,286047000.6,N
1649042055.4,286046999.3,N
1649042075.2,286046999.4,N
1649042095.0,286046999.4,N
1649042095.9,286046998.4,N
1649042115.8,286047001.1,N
1649042135.6,286046998.7,N
1649042155.4,286047001.1,N
1649042175.3,286046999.8,N
1649042195.1,286047004.2,N
1649042215.9,286047004.3,N
1649042235.7,286047003.7,N
1649042255.5,286047004.3,N
1649042275.4,286047003.8,N
1649042295.2,286047002.4,N
1649042315.0,286046998.6,N
1649042315.9,286046999.0,N
1649042335.8,286047001.1,N
1649042355.6,286047000.7,N
1649042375.5,286047000.3,N
1649042395.3,286047000.8,N
1649042415.1,286047000.8,N
1649042435.9,286047002.7,N
1649042455.7,286047001.7,N
1649042475.5,286047003.9,N
1649042495.4,286047001.7,N
1649042515.2,286047002.6,N
1649042535.1,286046999.7,N
1649042536.0,286047002.5,N
1649042555.8,286047002.2,N
1649042575.6,286047001.8,N
1649042595.5,286047004.4,N
1649042615.3,286047004.4,N
1649042635.2,286047004.2,N
1649042655.9,286047003.8,N
1649042675.7,286047004.1,N
1649042695.6,286047004.1,N
1649042715.4,286047003.7,N
1649042735.2,286047003.9,N
1649042755.1,286047003.3,N
1649042756.0,286047005.5,Y
1649042775.8,286047002.7,P
1649042795.7,286047001.3,P
1649042815.5,286047001.7,N
1649042835.3,286046999.8,N
1649042855.2,286046999.9,N
1649042875.0,286047001.9,N
1649042875.9,286047002.1,N
1649042895.8,286047002.9,N
1649042915.6,286047007.1,Y
1649042935.4,286047003.1,P
1649042955.3,286047002.0,N
1649042975.1,286047000.3,N
1649042995.8,286046998.2,N
1649043015.7,286047000.2,N
1649043035.5,286047000.5,N
1649043055.4,286047000.6,N
1649043075.2,286047002.7,N
1649043095.0,286046998.2,N
1649043095.9,286047001.2,N
1649043115.8,286047002.7,N
1649043135.6,286047000.8,N
1649043155.4,286046996.9,N
1649043175.3,286046997.4,N
1649043195.1,286046999.1,N
1649043215.9,286046997.7,N
1649043235.7,286046998.7,N
1649043255.5,286047001.0,N
1649043275.4,286047000.7,N
1649043295.2,286046998.8,N
1649043315.0,286046999.1,N
1649043315.9,286046999.2,N
1649043335.8,286046996.5,N
1649043355.6,286046999.6,N
1649043375.5,286046998.7,N
1649043395.3,286046999.9,N
1649043415.1,286047002.4,N
1649043435.9,286047000.2,N
1649043455.7,286047000.1,N
1649043475.5,286047000.4,N
1649043495.4,286047000.8,N
1649043515.2,286046999.4,N
1649043535.1,286046996.9,N
1649043536.0,286046997.3,N
1649043555.8,286046997.9,N
1649043575.6,286046997.8,N
1649043595.5,286046998.4,N
1649043615.3,286046998.7,N
1649043635.1,286046997.1,N
1649043655.9,286046996.7,N
1649043675.7,286046998.7,N
1649043695.6,286047001.2,N
1649043715.4,286047001.2,N
1649043735.2,286046998.5,N
1649043755.1,286046998.2,N
1649043756.0,286046998.4,N
1649043775.8,286046999.1,N
1649043795.6,286046998.6,N
1649043815.5,286046998.5,N
1649043835.3,286046998.2,N
1649043855.2,286046999.1,N
1649043875.9,286046995.0,Y
1649043895.7,286046997.3,P
1649043915.6,286046997.2,P
1649043935.4,286046997.0,P
1649043955.2,286046999.0,N
1649043975.1,286047000.8,N
1649043976.0,286047001.2,N
1649043995.8,286046998.3,N
1649044015.7,286046999.5,N
1649044035.5,286046998.4,N
1649044055.3,286046998.7,N
1649044075.2,286046999.3,N
1649044095.0,286046996.7,N
1649044095.9,286046997.8,N
1649044115.8,286046995.0,Y
1649044135.6,286046997.0,P
1649044155.4,286046999.5,N
1649044175.3,286046994.9,P
1649044195.1,286046995.5,N
1649044215.8,286046995.2,N
1649044235.7,286046995.0,N
1649044255.5,286046997.3,N
1649044275.4,286046997.3,N
1649044295.2,286046994.9,Y
1649044315.0,286046999.8,P
1649044315.9,286047000.1,N
1649044335.8,286047002.0,N
1649044355.6,286047003.7,N
1649044375.4,286047005.7,N
1649044395.3,286047005.7,N
1649044415.1,286047003.4,N
1649044435.9,286047003.3,N
1649044455.7,286047004.1,N
1649044475.5,286047006.0,N
1649044495.4,286047005.6,N
1649044515.2,286047006.3,N
1649044535.0,286047006.4,N
1649044536.0,286047007.2,N
1649044555.8,286047005.1,N
1649044575.6,286047007.5,N
1649044595.5,286047008.4,N
1649044615.3,286047009.9,Y
1649044635.1,286047004.5,P
1649044655.9,286047003.4,P
1649044675.7,286047004.1,P
1649044695.6,286047005.9,Y
1649044715.4,286047002.4,P
1649044735.2,286047001.4,N
1649044755.1,286047002.0,N
1649044756.0,286047000.2,N
1649044775.8,286046998.8,N
1649044795.6,286046999.6,N
